Stations météo

Publicité
Toussus Le Noble, France (7146): Température de l'air & dewpoint: 10.01.2018 09:00:00 - 16.01.2018 09:00:00 (CET)Toussus Le Noble, France (7146): Température de l'air 5cm: 10.01.2018 09:00:00 - 16.01.2018 09:00:00 (CET)Toussus Le Noble, France (7146): Vitesse du vent & gusts: 10.01.2018 09:00:00 - 16.01.2018 09:00:00 (CET)Toussus Le Noble, France (7146): Direction du vent: 10.01.2018 09:00:00 - 16.01.2018 09:00:00 (CET)Toussus Le Noble, France (7146): reduced air pressure: 10.01.2018 09:00:00 - 16.01.2018 09:00:00 (CET)Toussus Le Noble, France (7146): visibility: 10.01.2018 09:00:00 - 16.01.2018 09:00:00 (CET)Toussus Le Noble, France (7146): Quantités de précipitations: 10.01.2018 09:00:00 - 16.01.2018 09:00:00 (CET)
Date & Time tt [°C] td [°C] tt 5cm [°C] ff [km/h] ff [knt] fx [km/h] fx [knt] dd ppp [hPa] vv [km] rr [mm]
16.01.2018 09:00:00 - - - - - - - - - - -
16.01.2018 08:00:00 7,6 5,7 6,4 22 12 50 27 WSW 1001,6 60 0,4
16.01.2018 07:00:00 7,4 5,9 6,6 29 15 51 27 W 1001,4 10 0,4
16.01.2018 06:00:00 7,7 6,2 6,6 24 13 44 24 WSW 1001,4 48 0,2
16.01.2018 05:00:00 7,4 6,3 6,5 21 12 48 26 WSW 1001,7 52 0,0
16.01.2018 04:00:00 7,6 5,9 6,8 24 13 50 27 W 1002,0 17 0,2
16.01.2018 03:00:00 8,0 6,0 7,1 21 11 54 29 W 1001,9 51 0,0
16.01.2018 02:00:00 7,8 7,0 7,0 24 13 40 22 WSW 1001,8 20 0,6
16.01.2018 01:00:00 7,7 6,5 7,0 19 11 36 20 WSW 1002,7 9 0,4
16.01.2018 00:00:00 7,8 5,9 6,8 19 10 43 23 WSW 1003,0 19 0,0
15.01.2018 23:00:00 8,1 6,1 7,0 24 13 45 24 WSW 1003,0 60 0,0
15.01.2018 22:00:00 7,7 5,5 6,7 26 14 47 26 WSW 1002,5 59 0,0
15.01.2018 21:00:00 8,2 5,8 7,2 26 14 43 23 WSW 1002,5 60 0,0
15.01.2018 20:00:00 9,0 7,3 8,2 26 14 46 25 W 1002,1 60 0,0
15.01.2018 19:00:00 8,6 7,8 7,7 29 15 46 25 SW 1001,3 60 0,0
15.01.2018 18:00:00 8,2 7,6 7,2 29 16 59 32 SW 1001,4 56 0,3
15.01.2018 17:00:00 7,5 6,9 6,7 39 21 71 38 SSW 1001,3 20 0,4
15.01.2018 16:00:00 7,0 6,3 6,1 43 23 74 40 SSW 1002,4 7 0,8
15.01.2018 15:00:00 6,4 5,3 5,8 44 24 81 44 SSW 1003,9 13 2,4
15.01.2018 14:00:00 6,2 5,3 5,8 44 24 79 42 SSW 1006,4 4,2 2,2
15.01.2018 13:00:00 6,3 5,1 5,6 37 20 56 30 SSW 1008,2 26 0,0
15.01.2018 12:00:00 5,9 4,5 5,3 31 17 48 26 SSW 1011,1 18 0,0
15.01.2018 11:00:00 5,9 4,1 5,7 28 15 53 28 SSW 1012,9 22 0,0
15.01.2018 10:00:00 5,8 4,3 5,1 29 16 46 25 SSW 1013,6 22 0,0
15.01.2018 09:00:00 5,2 4,0 4,8 22 12 40 22 SSW 1014,2 14 0,0
15.01.2018 08:00:00 4,9 4,2 4,5 20 11 34 18 SSW 1015,1 10 0,0
15.01.2018 07:00:00 4,4 3,8 4,2 19 10 28 15 SSW 1015,9 10 0,0
15.01.2018 06:00:00 4,1 3,5 4,0 15 8 27 15 SSW 1016,5 10 0,0
15.01.2018 05:00:00 4,0 3,6 3,9 17 9 30 16 SW 1016,9 7 0,0
15.01.2018 04:00:00 4,3 3,9 4,3 16 8 28 15 SSW 1017,8 7 0,0
15.01.2018 03:00:00 4,3 3,9 4,3 19 10 31 17 SW 1018,4 3,9 0,0
15.01.2018 02:00:00 4,6 4,2 4,4 14 8 29 16 SSW 1018,8 4,2 0,0
15.01.2018 01:00:00 4,5 4,1 4,2 12 7 18 10 SW 1019,6 8 0,0
15.01.2018 00:00:00 4,3 4,0 4,0 11 6 19 11 SW 1019,9 3,6 0,0
14.01.2018 23:00:00 4,0 3,6 3,7 15 8 21 11 SW 1019,9 0,7 0,0
14.01.2018 22:00:00 3,8 3,4 3,2 10 5 23 12 SW 1019,6 1,6 0,0
14.01.2018 21:00:00 3,5 2,9 1,5 11 6 19 10 SSW 1019,3 3,5 0,0
14.01.2018 20:00:00 2,9 2,3 0,3 10 5 13 7 SSW 1019,4 4,2 0,0
14.01.2018 19:00:00 3,2 1,9 0,9 4 2 11 6 W 1019,3 5 0,0
14.01.2018 18:00:00 4,8 2,7 2,2 7 4 9 5 S 1018,8 8 0,0
14.01.2018 17:00:00 6,2 3,0 3,5 4 2 6 3 SE 1017,9 12 0,0
14.01.2018 16:00:00 7,1 3,2 5,8 4 2 8 4 SSE 1017,8 13 0,0
14.01.2018 15:00:00 6,8 2,7 7,4 3 1 6 3 SSE 1017,5 11 0,0
14.01.2018 14:00:00 6,7 2,8 7,9 3 2 8 5 SSW 1017,6 10 0,0
14.01.2018 13:00:00 7,8 2,9 9,7 4 2 9 5 S 1017,6 9 0,0
14.01.2018 12:00:00 4,9 1,9 8,4 4 2 9 5 SE 1018,0 7 0,0
14.01.2018 11:00:00 3,3 2,0 3,4 3 2 6 4 E 1018,1 4,5 0,0
14.01.2018 10:00:00 1,8 1,2 -1,3 0 0 5 3 N 1017,7 4,0 0,0
14.01.2018 09:00:00 -0,5 -0,9 -1,4 2 1 3 2 N 1017,2 2,6 0,0
14.01.2018 08:00:00 -0,8 -1,4 -2,0 2 1 4 2 NNW 1017,1 3,2 0,0
14.01.2018 07:00:00 -0,9 -1,6 -2,4 2 1 3 2 ENE 1016,6 0,6 0,0
14.01.2018 06:00:00 -0,6 -1,4 -2,2 3 2 4 2 ENE 1016,4 0,6 0,0
14.01.2018 05:00:00 0,2 -0,4 -0,9 2 1 6 4 ENE 1016,5 4,2 0,0
14.01.2018 04:00:00 0,2 -0,4 -1,6 5 3 8 4 ENE 1016,3 4,3 0,0
14.01.2018 03:00:00 0,5 -0,5 -1,0 4 2 6 3 E 1016,4 5 0,0
14.01.2018 02:00:00 1,2 -0,1 -0,2 6 4 10 5 E 1016,5 7 0,0
14.01.2018 01:00:00 1,7 0,1 0,7 5 3 11 6 E 1016,6 8 0,0
14.01.2018 00:00:00 2,2 0,4 0,8 6 4 9 5 E 1016,8 9 0,0
13.01.2018 23:00:00 2,2 0,4 0,9 5 3 15 8 E 1016,9 9 0,0
13.01.2018 22:00:00 3,4 0,8 2,6 11 6 20 11 E 1016,9 9 0,0
13.01.2018 21:00:00 4,0 1,2 3,5 11 6 21 12 E 1017,4 9 0,0
13.01.2018 20:00:00 3,9 1,8 2,5 11 6 22 12 E 1017,8 9 0,0
13.01.2018 19:00:00 3,7 1,6 2,9 12 7 24 13 E 1017,9 9 0,0
13.01.2018 18:00:00 4,5 2,0 4,1 16 9 26 14 E 1018,0 8 0,0
13.01.2018 17:00:00 4,2 1,9 3,8 16 9 25 13 ESE 1018,4 8 0,0
13.01.2018 16:00:00 4,3 2,0 4,5 17 9 27 15 E 1018,5 9 0,0
13.01.2018 15:00:00 3,9 1,8 4,3 19 11 29 16 ESE 1019,1 8 0,0
13.01.2018 14:00:00 3,7 1,6 4,4 21 11 30 16 E 1019,5 9 0,0
13.01.2018 13:00:00 3,9 1,8 4,4 20 11 29 16 E 1020,5 11 0,0
13.01.2018 12:00:00 3,9 2,3 4,6 20 11 29 16 E 1021,2 8 0,0
13.01.2018 11:00:00 4,5 3,3 4,4 14 8 25 14 E 1021,6 7 0,0
13.01.2018 10:00:00 3,9 3,2 3,8 12 6 21 11 SE 1021,8 6 0,0
13.01.2018 09:00:00 3,8 3,4 3,5 18 10 29 16 ESE 1021,8 4,3 0,0
13.01.2018 08:00:00 3,4 3,3 3,3 17 9 25 14 ESE 1022,0 2,7 0,0
13.01.2018 07:00:00 3,1 3,0 3,0 10 6 22 12 SE 1022,4 1,8 0,0
13.01.2018 06:00:00 3,1 3,0 3,1 14 8 22 12 ESE 1022,4 0,3 0,0
13.01.2018 05:00:00 3,0 2,9 3,0 8 4 14 8 ESE 1023,2 0,1 0,0
13.01.2018 04:00:00 3,4 3,3 0,5 9 5 16 8 ESE 1023,4 0,2 0,0
13.01.2018 03:00:00 0,6 0,3 -1,7 5 3 8 4 ESE 1024,1 0,2 0,0
13.01.2018 02:00:00 0,7 0,1 -1,4 3 2 5 3 E 1024,5 0,2 0,0
13.01.2018 01:00:00 2,1 2,0 -0,9 4 2 8 4 E 1024,8 0,9 0,0
13.01.2018 00:00:00 1,4 1,0 -1,0 5 3 8 4 E 1025,2 0,4 0,0
12.01.2018 23:00:00 1,3 -0,2 -0,7 0 0 3 1 N 1026,0 0,6 0,0
12.01.2018 22:00:00 3,0 1,8 0,9 2 1 6 4 WNW 1025,9 3,0 0,0
12.01.2018 21:00:00 5,1 3,6 3,9 5 3 6 3 N 1026,0 4,8 0,0
12.01.2018 20:00:00 5,5 3,8 5,3 0 0 6 4 N 1026,0 6 0,0
12.01.2018 19:00:00 5,4 3,7 5,4 3 2 9 5 NNE 1026,2 6 0,0
12.01.2018 18:00:00 5,4 3,9 5,4 5 3 11 6 NNE 1025,9 5 0,0
12.01.2018 17:00:00 5,5 4,0 5,6 8 4 12 7 NNW 1026,0 5 0,0
12.01.2018 16:00:00 5,9 4,2 6,3 10 5 13 7 NW 1026,1 6 0,0
12.01.2018 15:00:00 6,2 4,0 7,1 4 2 - - NW 1025,6 6 0,0
12.01.2018 14:00:00 6,3 4,5 7,2 10 5 16 9 NE 1025,7 6 0,0
12.01.2018 13:00:00 5,7 4,3 6,1 8 4 13 7 NE 1026,2 4,5 0,0
12.01.2018 12:00:00 5,2 4,6 5,6 9 5 13 7 NNE 1026,8 3,0 0,0
12.01.2018 11:00:00 4,8 4,5 4,8 6 4 13 7 N 1027,1 2,1 0,0
12.01.2018 10:00:00 4,5 4,2 4,5 10 5 17 9 N 1026,8 1,4 0,0
12.01.2018 09:00:00 4,4 4,0 4,5 9 5 18 10 N 1026,4 1,6 0,0
12.01.2018 08:00:00 4,6 4,2 4,7 11 6 16 8 NNW 1026,3 3,7 0,0
12.01.2018 07:00:00 4,6 4,2 4,8 10 5 14 7 N 1025,7 3,4 0,0
12.01.2018 06:00:00 4,6 4,3 4,7 8 4 16 9 N 1025,5 2,9 0,0
12.01.2018 05:00:00 4,7 4,4 4,6 - - 14 8 - 1025,2 0,6 0,0
12.01.2018 04:00:00 4,6 4,3 4,6 11 6 16 9 N 1024,9 0,8 0,0
12.01.2018 03:00:00 4,5 4,1 4,5 11 6 19 10 N 1024,7 2,6 0,0
12.01.2018 02:00:00 4,7 4,3 4,7 13 7 18 10 NNW 1024,6 2,5 0,0
12.01.2018 01:00:00 4,7 4,1 4,8 12 7 20 11 N 1024,3 4,5 0,0
12.01.2018 00:00:00 5,0 4,6 5,1 11 6 19 10 N 1024,0 2,6 0,0
11.01.2018 23:00:00 5,3 4,7 5,3 8 5 16 9 NNW 1023,5 3,1 0,0
11.01.2018 22:00:00 5,5 4,8 5,2 8 5 18 10 NNW 1023,1 6 0,0
11.01.2018 21:00:00 5,1 4,5 4,9 9 5 16 9 NNE 1022,7 7 0,0
11.01.2018 20:00:00 4,8 4,5 4,7 8 5 19 10 N 1022,1 2,5 0,0
11.01.2018 19:00:00 4,9 4,5 4,9 13 7 21 12 N 1021,1 1,0 0,0
11.01.2018 18:00:00 6,1 5,1 6,0 13 7 18 10 N 1020,2 8 0,0
11.01.2018 17:00:00 6,6 5,2 6,6 9 5 16 9 N 1019,4 11 0,0
11.01.2018 16:00:00 7,0 5,6 7,3 10 5 17 9 N 1018,7 12 0,0
11.01.2018 15:00:00 7,6 5,9 8,1 11 6 17 9 N 1017,7 10 0,0
11.01.2018 14:00:00 7,8 6,4 8,3 15 8 20 11 N 1016,9 6 0,0
11.01.2018 13:00:00 7,5 6,8 7,8 7 4 10 5 NNE 1016,4 8 0,0
11.01.2018 12:00:00 7,0 6,6 7,1 4 2 7 4 ENE 1016,2 6 0,0
11.01.2018 11:00:00 6,4 6,0 6,2 4 2 6 4 SE 1015,7 7 0,0
11.01.2018 10:00:00 5,9 5,6 5,8 3 1 8 4 E 1014,7 3,9 0,0
11.01.2018 09:00:00 5,8 5,7 5,7 6 3 8 4 ENE 1013,7 1,9 0,4
11.01.2018 08:00:00 5,7 5,6 5,6 7 4 12 6 ESE 1012,9 2,6 2,0
11.01.2018 07:00:00 5,7 5,6 5,7 9 5 15 8 E 1011,9 0,8 0,0
11.01.2018 06:00:00 5,7 5,6 5,7 9 5 14 8 E 1011,2 0,3 0,2
11.01.2018 05:00:00 5,8 5,7 5,6 8 4 13 7 SE 1010,9 0,5 0,0
11.01.2018 04:00:00 5,7 5,6 5,7 9 5 13 7 ESE 1010,2 0,5 0,0
11.01.2018 03:00:00 5,8 5,7 5,5 9 5 11 6 S 1010,2 2,5 0,0
11.01.2018 02:00:00 5,9 5,6 5,7 6 3 11 6 S 1009,7 0,9 0,0
11.01.2018 01:00:00 6,0 5,9 5,8 5 3 9 5 SE 1009,7 0,3 0,0
11.01.2018 00:00:00 6,2 6,1 5,2 5 3 10 5 SSE 1009,7 0,3 0,0
10.01.2018 23:00:00 5,2 4,9 2,2 5 3 10 5 SSW 1009,7 0,3 0,0
10.01.2018 22:00:00 4,2 3,5 2,3 4 2 7 4 E 1009,7 0,2 0,0
10.01.2018 21:00:00 5,7 5,3 3,1 5 3 7 4 S 1009,5 7 0,0
10.01.2018 20:00:00 6,1 5,4 4,8 5 3 9 5 SE 1009,1 9 0,0
10.01.2018 19:00:00 6,9 5,7 6,0 6 3 10 5 SSW 1009,1 19 0,0
10.01.2018 18:00:00 7,5 6,0 6,4 8 5 14 7 S 1008,8 9 0,0
10.01.2018 17:00:00 8,0 6,1 7,6 11 6 16 9 S 1008,2 39 0,0
10.01.2018 16:00:00 8,5 6,5 8,8 11 6 17 9 S 1008,3 39 0,0
10.01.2018 15:00:00 8,4 6,9 8,5 12 6 18 10 S 1008,3 19 0,0
10.01.2018 14:00:00 8,6 6,6 8,5 11 6 22 12 SSW 1008,3 20 0,0
10.01.2018 13:00:00 8,1 6,7 8,2 13 7 19 11 SSW 1008,8 33 0,0
10.01.2018 12:00:00 7,8 6,7 7,6 11 6 19 11 SW 1009,3 30 0,0
10.01.2018 11:00:00 7,5 6,8 7,3 8 5 14 8 SSW 1009,5 16 0,0
10.01.2018 10:00:00 6,9 6,5 6,3 9 5 22 12 SW 1009,0 12 0,0
10.01.2018 09:00:00 6,5 6,1 6,2 16 8 22 12 SW 1008,4 8 0,0

tt = Température de l'air
td = dewpoint
tt 5cm = Température de l'air 5cm
ff = Vitesse du vent
fx = gusts
dd = Direction du vent
ppp = reduced air pressure
vv = visibility
rr = Quantités de précipitations

stations d'obs. à proximité